Find Starlink 11322

NORAD ID: 61542 Int'l Des: 2024-184 Owner: SPXS Country: US Constellation: starlink operational
LEOCIRCULAR

Live-Position

3D-Globus wird geladen...

Über Starlink 11322

Beschreibung wird geladen...

Nächste Überflüge

Passes for default location (London). Set your location on the main map for personalized predictions.

Höhenverlauf

Loading altitude history...

Zweizeiliger Elementsatz

1 61542U 24184L 26126.50021510 -.00005017 00000-0 -36621-4 0 9995
2 61542 53.1593 311.5279 0000798 122.5838 237.5257 15.69682562 90557
Epoch: 6. Mai 2026 • Age: 6 hours

Aktueller Status

Höhe 363.3 km
Geschwindigkeit 7.69 km/s
Subsatellitenpunkt -11.31°S, 166.24°E
Startdatum 15. Okt. 2024
Alter 1.5 years
Typ internet

Technische Details

Klassifizierung Payload
Masse 960.00 kg
Trockenmasse 910.00 kg
Gesamtmasse 960.00 kg
Länge 0.30 m
Durchmesser 4.10 m
Spannweite 29.00 m
Form Box + pan
Hersteller SPXS
Bus-Typ Starlink V2MD
Phasenstatus In Orbit
Besitzer/Staat SPXS/US

Most Searched